1313884834736,0.745437
1313884894736,0.746041
1313884954736,0.738341
1313885014736,0.740625
1313885074736,0.741096
1313885134736,0.742081
1313885194736,0.743759
1313885254736,0.749580
1313885314736,0.742385
1313885374736,0.742066
1313885434736,0.739787
1313885494736,0.744022
1313885554736,0.742632
1313885614736,0.745325
1313885674736,0.741411
1313885734736,0.739043
1313885794736,0.743540
1313885854736,0.742941
1313885914736,0.742126
1313885974736,0.741767
1313886034736,0.731055
1313886094736,0.730510
1313886154736,0.729477
1313886214736,0.734648
1313886274736,0.728225
1313886334736,0.740968
1313886394736,0.727425
1313886454736,0.729345
1313886514736,0.737144
1313886574736,0.727192
1313886634736,0.726235
1313886694736,0.720005
1313886754736,0.731740
1313886814736,0.727475
1313886874736,0.731114
1313886934736,0.727215
1313886994736,0.725798
1313887054736,0.726417
1313887114736,0.728700
1313887174736,0.735714
1313887234736,0.731691
1313887294736,0.733461
1313887354736,0.726925
1313887414736,0.726071
1313887474736,0.733116
1313887534736,0.724581
1313887594736,0.721790
1313887654736,0.731050
1313887714736,0.728491
1313887774736,0.729638
1313887834736,0.725733
1313887894736,0.736169
1313887954736,0.730536
1313888014736,0.731629
1313888074736,0.733971
1313888134736,0.733272
1313888194736,0.732563
1313888254736,0.730222
1313888314736,0.722041
1313888374736,0.731610
1313888434746,0.727906
1313888494746,0.730533
1313888554746,0.730324
1313888614746,0.726259
1313888674746,0.731629
1313888734746,0.723939
1313888794746,0.728020
1313888854746,0.727943
1313888914746,0.721631
1313888974746,0.720969
1313889034746,0.718823
1313889094746,0.726606
1313889154746,0.724924
1313889214746,0.727503
1313889274746,0.725240
1313889334746,0.732996
1313889394746,0.729090
1313889454746,0.720837
1313889514746,0.727917
1313889574746,0.722438
1313889634746,0.723436
1313889694746,0.727346
1313889754746,0.722822
1313889814746,0.726753
1313889874746,0.723683
1313889934746,0.727362
1313889994746,0.726074
1313890054746,0.724503
1313890114746,0.726944
1313890174746,0.728473
1313890234746,0.727146
1313890294746,0.731069
1313890354746,0.731958
1313890414746,0.729930
1313890474746,0.733335
1313890534746,0.734859
1313890594746,0.729768
1313890654746,0.730852
1313890714746,0.728127
1313890774746,0.727479
1313890834746,0.734275
1313890894746,0.729337
1313890954746,0.728616
1313891014746,0.725283
1313891074746,0.725224
1313891134746,0.731669
1313891194746,0.729831
1313891254746,0.736332
1313891314746,0.729562
1313891374746,0.729464
1313891434746,0.726228
1313891494746,0.724333
1313891554746,0.719124
1313891614746,0.728150
1313891674746,0.722920
1313891734746,0.719742
1313891794746,0.723908
1313891854746,0.726485
1313891914746,0.723719
1313891974746,0.728179
1313892034756,0.733584
1313892094756,0.734159
1313892154756,0.730353
1313892214756,0.729919
1313892274756,0.728570
1313892334756,0.725068
1313892394756,0.724815
1313892454756,0.725531
1313892514756,0.728005
1313892574756,0.728352
1313892634756,0.722750
1313892694756,0.721518
1313892754756,0.729997
1313892814756,0.725184
1313892874756,0.722270
1313892934756,0.726962
1313892994756,0.716608
1313893054756,0.728877
1313893114756,0.717865
1313893174756,0.722780
1313893234756,0.730006
1313893294756,0.719236
1313893354756,0.723270
1313893414756,0.718136
1313893474756,0.718748
1313893534756,0.723168
1313893594756,0.722010
1313893654756,0.726413
1313893714756,0.716722
1313893774756,0.721119
1313893834756,0.726526
1313893894756,0.728850
1313893954756,0.717497
1313894014756,0.728443
1313894074756,0.734354
1313894134756,0.732076
1313894194756,0.727660
1313894254756,0.726345
1313894314756,0.726685
1313894374756,0.722015
1313894434756,0.712368
1313894494756,0.732279
1313894554756,0.722733
1313894614756,0.727856
1313894674756,0.720989
1313894734756,0.721515
1313894794756,0.723248
1313894854756,0.719241
1313894914756,0.715428
1313894974756,0.713816
1313895034756,0.722773
1313895094756,0.721483
1313895154756,0.721956
1313895214756,0.710323
1313895274756,0.722544
1313895334756,0.715489
1313895394756,0.720589
1313895454756,0.718378
1313895514756,0.717291
1313895574756,0.714261
1313895634766,0.725991
1313895694766,0.714975
1313895754766,0.712869
1313895814766,0.715959
1313895874766,0.720572
1313895934766,0.721141
1313895994766,0.715066
1313896054766,0.714619
1313896114766,0.717425
1313896174766,0.728444
1313896234766,0.716538
1313896294766,0.711037
1313896354766,0.719233
1313896414766,0.715604
1313896474766,0.717483
1313896534766,0.722929
1313896594766,0.722032
1313896654766,0.718216
1313896714766,0.721688
1313896774766,0.726171
1313896834766,0.727848
1313896894766,0.723655
1313896954766,0.720809
1313897014766,0.728291
1313897074766,0.723548
1313897134766,0.727725
1313897194766,0.733125
1313897254766,0.719074
1313897314766,0.724329
1313897374766,0.724578
1313897434766,0.724505
1313897494766,0.721544
1313897554766,0.722096
1313897614766,0.722065
1313897674766,0.723370
1313897734766,0.714045
1313897794766,0.716207
1313897854766,0.719037
1313897914766,0.718075
1313897974766,0.719629
1313898034766,0.712901
1313898094766,0.715315
1313898154766,0.711454
1313898214766,0.707818
1313898274766,0.713360
1313898334766,0.717405
1313898394766,0.716326
1313898454766,0.718451
1313898514766,0.709640
1313898574766,0.718881
1313898634766,0.720516
1313898694766,0.715811
1313898754766,0.715856
1313898814766,0.714765
1313898874766,0.717420
1313898934766,0.713176
1313898994766,0.714607
1313899054766,0.714740
1313899114766,0.713286
1313899174766,0.715801
1313899234775,0.712960
1313899294775,0.716542
1313899354775,0.719715
1313899414775,0.714360
1313899474775,0.713768
1313899534775,0.711304
1313899594775,0.716780
1313899654775,0.718465
1313899714775,0.711792
1313899774775,0.717710
1313899834775,0.714488
1313899894775,0.715404
1313899954775,0.716932
1313900014775,0.716386
1313900074775,0.711098
1313900134775,0.714690
1313900194775,0.712529
1313900254775,0.707976
1313900314775,0.721264
1313900374775,0.703961
1313900434775,0.712451
1313900494775,0.718594
1313900554775,0.715808
1313900614775,0.717908
1313900674775,0.713632
1313900734775,0.719925
1313900794775,0.720296
1313900854775,0.716801
1313900914775,0.716197
1313900974775,0.721121
1313901034775,0.706144
1313901094775,0.716446
1313901154775,0.709337
1313901214775,0.718935
1313901274775,0.708100
1313901334775,0.709640
1313901394775,0.716233
1313901454775,0.711164
1313901514775,0.713461
1313901574775,0.714845
1313901634775,0.708808
1313901694775,0.716840
1313901754775,0.719319
1313901814775,0.715778
1313901874775,0.720090
1313901934775,0.715134
1313901994775,0.718269
1313902054775,0.715651
1313902114775,0.717915
1313902174775,0.721894
1313902234775,0.724149
1313902294775,0.717855
1313902354775,0.714848
1313902414775,0.714934
1313902474775,0.727814
1313902534775,0.716206
1313902594775,0.719924
1313902654775,0.723180
1313902714775,0.712198
1313902774775,0.714351
1313902834784,0.723207
1313902894785,0.720244
1313902954785,0.715669
1313903014785,0.718667
1313903074785,0.711031
1313903134785,0.717824
1313903194784,0.716132
1313903254785,0.716669
1313903314785,0.720869
1313903374785,0.708179
1313903434785,0.717703
1313903494785,0.712650
1313903554785,0.718328
1313903614785,0.716813
1313903674785,0.715287
1313903734785,0.716030
1313903794785,0.722442
1313903854784,0.719075
1313903914784,0.706848
1313903974784,0.714655
1313904034784,0.717555
1313904094784,0.716143
1313904154784,0.711749
1313904214784,0.718455
1313904274785,0.718674
1313904334785,0.720323
1313904394785,0.717605
1313904454785,0.713240
1313904514784,0.715500
1313904574785,0.721081
1313904634785,0.721667
1313904694785,0.714871
1313904754785,0.713180
1313904814785,0.716525
1313904874785,0.720506
1313904934785,0.714054
1313904994785,0.717281
1313905054785,0.717602
1313905114785,0.708646
1313905174785,0.718203
1313905234784,0.713268
1313905294784,0.718667
1313905354784,0.712247
1313905414784,0.711428
1313905474784,0.710598
1313905534784,0.717490
1313905594785,0.716900
1313905654785,0.717481
1313905714785,0.719197
1313905774785,0.719824
1313905834785,0.715189
1313905894784,0.714269
1313905954785,0.710027
1313906014785,0.712013
1313906074785,0.721035
1313906134785,0.720529
1313906194785,0.722079
1313906254785,0.720931
1313906314785,0.711443
1313906374785,0.718825
1313906434794,0.716332
1313906494794,0.716951
1313906554794,0.720187
1313906614794,0.724700
1313906674794,0.714190
1313906734794,0.721977
1313906794794,0.718605
1313906854794,0.725346
1313906914794,0.728205
1313906974794,0.727765
1313907034794,0.723359
1313907094794,0.736781
1313907154794,0.730255
1313907214794,0.728020
1313907274794,0.720784
1313907334794,0.723965
1313907394794,0.722274
1313907454794,0.723095
1313907514794,0.724832
1313907574794,0.724653
1313907634794,0.723320
1313907694794,0.723296
1313907754794,0.722740
1313907814794,0.719156
1313907874794,0.716372
1313907934794,0.713632
1313907994794,0.720732
1313908054794,0.713554
1313908114794,0.715033
1313908174794,0.717490
1313908234794,0.715587
1313908294794,0.725607
1313908354794,0.717945
1313908414794,0.720308
1313908474794,0.721676
1313908534794,0.718444
1313908594794,0.723438
1313908654794,0.721737
1313908714794,0.723285
1313908774794,0.722036
1313908834794,0.728416
1313908894794,0.722906
1313908954794,0.725036
1313909014794,0.726376
1313909074794,0.719511
1313909134794,0.721594
1313909194794,0.725392
1313909254794,0.730811
1313909314794,0.724054
1313909374794,0.724143
1313909434794,0.728665
1313909494794,0.722208
1313909554794,0.727183
1313909614794,0.719584
1313909674794,0.720716
1313909734794,0.724329
1313909794794,0.720941
1313909854794,0.725659
1313909914794,0.725075
1313909974794,0.720647
1313910034804,0.723548
1313910094804,0.723438
1313910154804,0.726603
1313910214804,0.720866
1313910274804,0.722130
1313910334804,0.716460
1313910394804,0.718332
1313910454804,0.724607
1313910514804,0.722982
1313910574804,0.725306
1313910634804,0.722395
1313910694804,0.725582
1313910754804,0.720326
1313910814804,0.720961
1313910874804,0.722662
1313910934804,0.720627
1313910994804,0.715285
1313911054804,0.720556
1313911114804,0.726808
1313911174804,0.720754
1313911234804,0.715456
1313911294804,0.722599
1313911354804,0.726986
1313911414804,0.724158
1313911474804,0.727026
1313911534804,0.720556
1313911594804,0.727940
1313911654804,0.724125
1313911714804,0.715480
1313911774804,0.718911
1313911834804,0.722493
1313911894804,0.715186
1313911954804,0.727350
1313912014804,0.722975
1313912074804,0.722693
1313912134804,0.723398
1313912194804,0.721342
1313912254804,0.723800
1313912314804,0.727518
1313912374804,0.721669
1313912434804,0.721519
1313912494804,0.721936
1313912554804,0.727319
1313912614804,0.736031
1313912674804,0.724350
1313912734804,0.731083
1313912794804,0.726608
1313912854804,0.724235
1313912914804,0.729808
1313912974804,0.720300
1313913034804,0.728270
1313913094804,0.722203
1313913154804,0.728749
1313913214804,0.721939
1313913274804,0.726992
1313913334804,0.717651
1313913394804,0.720617
1313913454804,0.727898
1313913514804,0.714359
1313913574804,0.719997
1313913634813,0.721544
1313913694813,0.724943
1313913754813,0.723471
1313913814813,0.719173
1313913874813,0.725014
1313913934813,0.723576
1313913994813,0.717732
1313914054813,0.727059
1313914114813,0.723025
1313914174813,0.725727
1313914234813,0.726788
1313914294813,0.725577
1313914354813,0.718675
1313914414813,0.724647
1313914474813,0.722672
1313914534813,0.727583
1313914594813,0.730212
1313914654813,0.729427
1313914714813,0.724112
1313914774813,0.721952
1313914834813,0.726955
1313914894813,0.724134
1313914954813,0.728093
1313915014813,0.728490
1313915074813,0.726772
1313915134813,0.721697
1313915194813,0.722861
1313915254813,0.729913
1313915314813,0.720035
1313915374813,0.725920
1313915434813,0.724635
1313915494813,0.731453
1313915554813,0.724334
1313915614813,0.722461
1313915674813,0.728235
1313915734813,0.723311
1313915794813,0.725856
1313915854813,0.731613
1313915914813,0.722110
1313915974813,0.721141
1313916034813,0.724003
1313916094813,0.723798
1313916154813,0.728578
1313916214813,0.719475
1313916274813,0.725635
1313916334813,0.728772
1313916394813,0.726166
1313916454813,0.726537
1313916514813,0.731143
1313916574813,0.730000
1313916634813,0.733984
1313916694813,0.729251
1313916754813,0.735394
1313916814813,0.735206
1313916874813,0.730081
1313916934813,0.735130
1313916994813,0.733536
1313917054813,0.730682
1313917114813,0.726386
1313917174813,0.734761
1313917234823,0.732455
1313917294823,0.733734
1313917354823,0.728314
1313917414823,0.730995
1313917474823,0.740685
1313917534823,0.727547
1313917594823,0.721552
1313917654823,0.730363
1313917714823,0.734392
1313917774823,0.728546
1313917834823,0.731919
1313917894823,0.731910
1313917954823,0.738494
1313918014823,0.734488
1313918074823,0.728685
1313918134823,0.731881
1313918194823,0.729722
1313918254823,0.731057
1313918314823,0.730067
1313918374823,0.728171
1313918434823,0.731433
1313918494823,0.729869
1313918554823,0.730957
1313918614823,0.726466
1313918674823,0.725435
1313918734823,0.732951
1313918794823,0.724710
1313918854823,0.721632
1313918914823,0.720520
1313918974823,0.719058
1313919034823,0.725279
1313919094823,0.719165
1313919154823,0.723898
1313919214823,0.722374
1313919274823,0.725204
1313919334823,0.722792
1313919394823,0.725792
1313919454823,0.722771
1313919514823,0.731328
1313919574823,0.729971
1313919634823,0.724798
1313919694823,0.728015
1313919754823,0.722859
1313919814823,0.729329
1313919874823,0.725110
1313919934823,0.727062
1313919994823,0.722594
1313920054823,0.726302
1313920114823,0.724776
1313920174823,0.728268
1313920234823,0.724657
1313920294823,0.729469
1313920354823,0.726998
1313920414823,0.728018
1313920474823,0.722821
1313920534823,0.719618
1313920594823,0.722170
1313920654823,0.723809
1313920714823,0.723426
1313920774823,0.723314
1313920834833,0.720387
1313920894833,0.714468
1313920954833,0.724865
1313921014833,0.711901
1313921074833,0.719180
1313921134833,0.722496
1313921194833,0.710519
1313921254833,0.727354
1313921314833,0.709561
1313921374833,0.717096
1313921434833,0.714252
1313921494833,0.721464
1313921554833,0.716431
1313921614833,0.718196
1313921674833,0.726331
1313921734833,0.721699
1313921794833,0.710149
1313921854833,0.723202
1313921914833,0.720389
1313921974833,0.721547
1313922034833,0.721234
1313922094833,0.729050
1313922154833,0.726038
1313922214833,0.720358
1313922274833,0.721576
1313922334833,0.721006
1313922394833,0.723771
1313922454833,0.721775
1313922514833,0.717880
1313922574833,0.721753
1313922634833,0.721918
1313922694833,0.722261
1313922754833,0.718140
1313922814833,0.726522
1313922874833,0.715012
1313922934833,0.721373
1313922994833,0.721718
1313923054833,0.727170
1313923114833,0.721180
1313923174833,0.723873
1313923234833,0.728045
1313923294833,0.723911
1313923354833,0.717263
1313923414833,0.726630
1313923474833,0.728439
1313923534833,0.722266
1313923594833,0.718446
1313923654833,0.720398
1313923714833,0.721526
1313923774833,0.723823
1313923834833,0.727528
1313923894833,0.722609
1313923954833,0.717441
1313924014833,0.723328
1313924074833,0.724239
1313924134833,0.728652
1313924194833,0.719809
1313924254833,0.721647
1313924314833,0.715771
1313924374833,0.713740
1313924434843,0.722176
1313924494843,0.720784
1313924554843,0.719364
1313924614843,0.718824
1313924674843,0.715580
1313924734843,0.710048
1313924794843,0.720789
1313924854843,0.723178
1313924914843,0.721894
1313924974843,0.725985
1313925034843,0.723299
1313925094843,0.721803
1313925154843,0.715139
1313925214843,0.723587
1313925274843,0.716677
1313925334843,0.724234
1313925394843,0.718067
1313925454843,0.722197
1313925514843,0.722584
1313925574843,0.723669
1313925634843,0.727625
1313925694843,0.724908
1313925754843,0.725151
1313925814843,0.720864
1313925874843,0.716403
1313925934843,0.724825
1313925994843,0.725007
1313926054843,0.725229
1313926114843,0.719096
1313926174843,0.722630
1313926234843,0.715479
1313926294843,0.727489
1313926354843,0.719361
1313926414843,0.723894
1313926474843,0.724189
1313926534843,0.721125
1313926594843,0.719667
1313926654843,0.721683
1313926714843,0.724607
1313926774843,0.730684
1313926834843,0.717684
1313926894843,0.721959
1313926954843,0.717511
1313927014843,0.723191
1313927074843,0.725708
1313927134843,0.720965
1313927194843,0.719277
1313927254843,0.721998
1313927314843,0.719152
1313927374843,0.722219
1313927434843,0.716803
1313927494843,0.726583
1313927554843,0.721667
1313927614843,0.713620
1313927674843,0.726026
1313927734843,0.722327
1313927794843,0.724040
1313927854843,0.719258
1313927914843,0.721860
1313927974843,0.712995
1313928034853,0.714720
1313928094853,0.720808
1313928154853,0.716562
1313928214853,0.722399
1313928274853,0.713272
1313928334853,0.721027
1313928394853,0.723873
1313928454853,0.722351
1313928514853,0.720003
1313928574853,0.726181
1313928634853,0.723229
1313928694853,0.715675
1313928754853,0.730920
1313928814853,0.728996
1313928874853,0.730077
1313928934853,0.733630
1313928994853,0.740453
1313929054853,0.744427
1313929114853,0.746702
1313929174853,0.746561
1313929234853,0.756436
1313929294853,0.756150
1313929354853,0.747731
1313929414853,0.760102
1313929474853,0.755900
1313929534853,0.759735
1313929594853,0.764615
1313929654853,0.755013
1313929714853,0.751965
1313929774853,0.752201
1313929834853,0.751591
1313929894853,0.750981
1313929954853,0.742600
1313930014853,0.741873
1313930074853,0.742135
1313930134853,0.744657
1313930194853,0.743932
1313930254853,0.744848
1313930314853,0.739778
1313930374853,0.732937
1313930434853,0.727318
1313930494853,0.730557
1313930554853,0.738127
1313930614853,0.736538
1313930674853,0.736906
1313930734853,0.730677
1313930794853,0.738954
1313930854853,0.731672
1313930914853,0.739120
1313930974853,0.732929
1313931034853,0.728709
1313931094853,0.738887
1313931154853,0.731013
1313931214853,0.725274
1313931274853,0.729672
1313931334853,0.721707
1313931394853,0.727176
1313931454853,0.731944
1313931514853,0.726742
1313931574853,0.720647
1313931634863,0.732838
1313931694863,0.718293
1313931754863,0.730540
1313931814863,0.737638
1313931874863,0.725169
1313931934863,0.729955
1313931994863,0.733167
1313932054863,0.720965
1313932114863,0.724058
1313932174863,0.729762
1313932234863,0.738621
1313932294863,0.732884
1313932354863,0.729511
1313932414863,0.740958
1313932474863,0.738760
1313932534863,0.731428
1313932594863,0.728364
1313932654863,0.729294
1313932714863,0.733428
1313932774863,0.734082
1313932834863,0.728190
1313932894863,0.730791
1313932954863,0.733628
1313933014863,0.735034
1313934154863,0.721383
1313934214863,0.721706
1313934274863,0.719581
1313934334863,0.722847
1313934394863,0.729479
1313934454863,0.726168
1313934514863,0.732604
1313934574863,0.726240
1313934634863,0.728259
1313934694863,0.724559
1313934754863,0.734133
1313934814863,0.724140
1313934874863,0.736597
1313934934863,0.734749
1313934994863,0.732753
1313935054863,0.733994
1313935114863,0.734676
1313935174863,0.730784
1313935234873,0.731295
1313935294873,0.734010
1313935354873,0.728748
1313935414873,0.729519
1313935474873,0.728109
1313935534873,0.727437
1313935594873,0.717283
1313935654873,0.722050
1313935714873,0.723986
1313935774873,0.726252
1313935834873,0.731635
1313935894873,0.727366
1313935954873,0.719655
1313936014873,0.728319
1313936074873,0.723501
1313936134873,0.723372
1313936194873,0.730147
1313936254873,0.728745
1313936314873,0.731808
1313936374873,0.733563
1313936434873,0.731577
1313936494873,0.736053
1313936554873,0.732125
1313936614873,0.731763
1313936674873,0.739946
1313936734873,0.738665
1313936794873,0.734093
1313936854873,0.741075
1313936914873,0.733892
1313936974873,0.736390
1313937034873,0.728161
1313937094873,0.731879
1313937154873,0.733768
1313937214873,0.731857
1313937274873,0.735180
1313937334873,0.731946
1313937394873,0.738075
1313937454873,0.730619
1313937514873,0.738146
1313937574873,0.734471
1313937634873,0.734581
1313937694873,0.732507
1313937754873,0.732524
1313937814873,0.730500
1313937874873,0.732731
1313937934873,0.740203
1313937994873,0.738684
1313938054873,0.744570
1313938114873,0.748406
1313938174873,0.746319
1313938234873,0.748082
1313938294873,0.752234
1313938354873,0.753337
1313938414873,0.744000
1313938474873,0.744156
1313938534873,0.737325
1313938594873,0.747558
1313938654873,0.742848
1313938714873,0.740452
1313938774873,0.740046
1313938834884,0.742576
1313938894884,0.732562
1313938954884,0.738296
1313939014884,0.735430
1313939074884,0.735574
1313939134884,0.735658
1313939194884,0.740951
1313939254884,0.736090
1313939314884,0.731863
1313939374884,0.738887
1313939434884,0.737643
1313939494884,0.741259
1313939554884,0.727831
1313939614884,0.730047
1313939674884,0.740682
1313939734884,0.729086
1313939794884,0.739352
1313939854884,0.735162
1313939914884,0.739538
1313939974884,0.725362
1313940034884,0.731990
1313940094884,0.728462
1313940154884,0.733772
1313940214884,0.728842
1313940274884,0.730682
1313940334884,0.731366
1313940394884,0.733733
1313940454884,0.736156
1313940514884,0.738252
1313940574884,0.739932
1313940634884,0.733979
1313940694884,0.739548
1313940754884,0.730663
1313940814884,0.726233
1313940874884,0.723056
1313940934884,0.725796
1313940994884,0.730330
1313941054884,0.735666
1313941114884,0.734178
1313941174884,0.735963
1313941234884,0.734184
1313941294884,0.741079
1313941354884,0.733707
1313941414884,0.734862
1313941474884,0.737274
1313941534884,0.738403
1313941594884,0.737041
1313941654884,0.735253
1313941714884,0.733263
1313941774884,0.747112
1313941834884,0.736854
1313941894884,0.740154
1313941954884,0.738908
1313942014884,0.737994
1313942074884,0.746965
1313942134884,0.742394
1313942194884,0.737819
1313942254884,0.735084
1313942314884,0.743891
1313942374884,0.740841
1313942434895,0.727158
1313942494895,0.729061
1313942554895,0.729692
1313942614895,0.731329
1313942674895,0.734749
1313942734895,0.730102
1313942794895,0.733217
1313942854895,0.731608
1313942914895,0.740364
1313942974895,0.732694
1313943034895,0.738821
1313943094895,0.738693
1313943154895,0.742436
1313943214895,0.737337
1313943274895,0.744842
1313943334895,0.752659
1313943394895,0.744779
1313943454895,0.753298
1313943514895,0.753496
1313943574895,0.760644
1313943634895,0.765894
1313943694895,0.753630
1313943754895,0.761667
1313943814895,0.754775
1313943874895,0.755168
1313943934895,0.757867
1313943994895,0.758146
1313944054895,0.753840
1313944114895,0.750457
1313944174895,0.750710
1313944234895,0.746217
1313944294895,0.745934
1313944354895,0.747082
1313944414895,0.747257
1313944474895,0.746815
1313944534895,0.738308
1313944594895,0.743058
1313944654895,0.742019
1313944714895,0.738491
1313944774895,0.742250
1313944834895,0.742184
1313944894895,0.735018
1313944954895,0.737939
1313945014895,0.731590
1313945074895,0.731080
1313945134895,0.730483
1313945194895,0.741205
1313945254895,0.729520
1313945314895,0.731675
1313945374895,0.728788
1313945434895,0.747631
1313945494895,0.727743
1313945554895,0.736507
1313945614895,0.729138
1313945674895,0.730361
1313945734895,0.736087
1313945794895,0.728702
1313945854895,0.733254
1313945914895,0.732246
1313945974895,0.732013
1313946034906,0.732096
1313946094906,0.736925
1313946154906,0.724812
1313946214906,0.726560
1313946274906,0.733234
1313946334906,0.733306
1313946394906,0.733718
1313946454906,0.739141
1313946514906,0.740245
1313946574906,0.735533
1313946634906,0.738946
1313946694906,0.732273
1313946754906,0.740658
1313946814906,0.742888
1313946874906,0.736434
1313946934906,0.733614
1313946994906,0.735223
1313947054906,0.737044
1313947114906,0.737076
1313947174906,0.745757
1313947234906,0.742996
1313947294906,0.745665
1313947354906,0.743076
1313947414906,0.745329
1313947474906,0.748459
1313947534906,0.739692
1313947594906,0.743652
1313947654906,0.743173
1313947714906,0.744406
1313947774906,0.745741
1313947834906,0.754652
1313947894906,0.746258
1313947954906,0.750399
1313948014906,0.755900
1313948074906,0.753089
1313948134906,0.748807
1313948194906,0.749827
1313948254906,0.756390
1313948314906,0.748541
1313948374906,0.742841
1313948434906,0.750988